Location: Nasgenstadt
(48.2786°N, 9.7553°E)
Time: 17:02:17
(UTC+01:00)

ISS - Pass Details

Date: 22 March 2017
Orbit: 399 x 409 km, 51.6° (Epoch: 25 March)

Event Time Altitude Azimuth Distance (km) Brightness Sun altitude
Exits shadow 05:19:44 17° 246° (WSW) 1,138 -2.2 -10.7°
Maximum altitude 05:20:46 19° 221° (SW) 1,045 -2.2 -10.6°
Drops below altitude 10° 05:23:11 10° 174° (S) 1,468 -1.1 -10.2°
Sets 05:25:39 0° 155° (SSE) 2,324 0.2 -9.8°
